| time (UTC) | temp F | wind direction | speed knots | gust knots | rain 1hr in | rain 24hr in | rain mn in | humidity % | barometer mb |
| 20260510202021 | 76 | 296 | 0.0 | 3.5 | 0.00 | 0.01 | 0.00 | 70 | 1016.7 |
| 20260510201521 | 76 | 288 | 0.9 | 3.5 | 0.00 | 0.01 | 0.00 | 74 | 1016.7 |
| 20260510201047 | 76 | 313 | 0.9 | 5.2 | 0.00 | 0.01 | 0.00 | 70 | 1016.7 |
| 20260510200523 | 76 | 313 | 1.7 | 5.2 | 0.00 | 0.01 | 0.00 | 76 | 1016.8 |
| 20260510200045 | 76 | 313 | 1.7 | 7.0 | 0.00 | 0.01 | 0.00 | 72 | 1016.8 |
| 20260510195521 | 76 | 326 | 2.6 | 7.0 | 0.00 | 0.01 | 0.00 | 73 | 1016.8 |
| 20260510195019 | 76 | 5 | 2.6 | 6.1 | 0.00 | 0.01 | 0.00 | 75 | 1016.9 |
| 20260510194521 | 75 | 322 | 1.7 | 4.3 | 0.00 | 0.01 | 0.00 | 77 | 1016.9 |
| 20260510194047 | 75 | 140 | 1.7 | 7.0 | 0.00 | 0.01 | 0.00 | 74 | 1016.8 |
| 20260510193528 | 75 | 103 | 3.5 | 7.0 | 0.00 | 0.01 | 0.00 | 77 | 1016.9 |
| 20260510193031 | 75 | 116 | 3.5 | 4.3 | 0.00 | 0.01 | 0.00 | 78 | 1016.9 |
| 20260510192531 | 74 | 134 | 1.7 | 4.3 | 0.00 | 0.01 | 0.00 | 78 | 1016.9 |
| 20260510192033 | 74 | 190 | 3.5 | 4.3 | 0.00 | 0.01 | 0.00 | 75 | 1017.0 |
| 20260510191519 | 73 | 197 | 0.9 | 3.5 | 0.00 | 0.01 | 0.00 | 77 | 1017.1 |
| 20260510191019 | 73 | 128 | 2.6 | 5.2 | 0.00 | 0.01 | 0.00 | 77 | 1017.1 |
| 20260510190518 | 74 | 14 | 3.5 | 7.0 | 0.00 | 0.01 | 0.00 | 77 | 1017.2 |
| 20260510190021 | 73 | 5 | 3.5 | 7.0 | 0.00 | 0.01 | 0.00 | 78 | 1017.2 |
| 20260510185522 | 72 | 297 | 0.9 | 5.2 | 0.00 | 0.01 | 0.00 | 79 | 1017.3 |
| 20260510185023 | 73 | 328 | 2.6 | 5.2 | 0.00 | 0.01 | 0.00 | 81 | 1017.4 |
| 20260510184525 | 72 | 340 | 3.5 | 5.2 | 0.00 | 0.01 | 0.00 | 82 | 1017.4 |
| 20260510184025 | 72 | 327 | 2.6 | 5.2 | 0.00 | 0.01 | 0.00 | 84 | 1017.5 |
| 20260510183527 | 71 | 349 | 1.7 | 3.5 | 0.00 | 0.01 | 0.00 | 86 | 1017.5 |
| 20260510183028 | 69 | 310 | 1.7 | 4.3 | 0.00 | 0.01 | 0.00 | 87 | 1017.5 |
| 20260510182531 | 69 | 13 | 1.7 | 4.3 | 0.00 | 0.01 | 0.00 | 88 | 1017.6 |
| 20260510182031 | 68 | 5 | 0.9 | 3.5 | 0.00 | 0.01 | 0.00 | 87 | 1017.6 |
| 20260510181519 | 69 | 30 | 2.6 | 3.5 | 0.00 | 0.01 | 0.00 | 88 | 1017.7 |
| 20260510181019 | 69 | 325 | 0.9 | 3.5 | 0.00 | 0.01 | 0.00 | 88 | 1017.7 |
| 20260510180541 | 68 | 10 | 1.7 | 3.5 | 0.00 | 0.01 | 0.00 | 88 | 1017.7 |
| 20260510180017 | 68 | 5 | 1.7 | 4.3 | 0.00 | 0.01 | 0.00 | 89 | 1017.8 |
| 20260510175519 | 69 | 330 | 0.9 | 4.3 | 0.00 | 0.01 | 0.00 | 90 | 1017.8 |
| 20260510175018 | 68 | 346 | 1.7 | 3.5 | 0.00 | 0.01 | 0.00 | 89 | 1017.9 |
| 20260510174519 | 68 | 30 | 1.7 | 3.5 | 0.00 | 0.01 | 0.00 | 90 | 1018.0 |
| 20260510174021 | 68 | 59 | 0.9 | 2.6 | 0.00 | 0.01 | 0.00 | 91 | 1018.0 |
| 20260510173544 | 67 | 355 | 0.0 | 1.7 | 0.00 | 0.01 | 0.00 | 90 | 1018.2 |
| 20260510173025 | 67 | 355 | 0.0 | 2.6 | 0.00 | 0.01 | 0.00 | 90 | 1018.2 |
| 20260510172528 | 67 | 355 | 0.0 | 2.6 | 0.00 | 0.01 | 0.00 | 91 | 1018.1 |
| 20260510172029 | 67 | 336 | 0.0 | 4.3 | 0.00 | 0.01 | 0.00 | 92 | 1018.2 |
| 20260510171528 | 67 | 336 | 0.9 | 4.3 | 0.00 | 0.01 | 0.00 | 92 | 1018.2 |
| 20260510171029 | 67 | 334 | 1.7 | 3.5 | 0.00 | 0.01 | 0.00 | 93 | 1018.2 |
| 20260510170531 | 67 | 19 | 1.7 | 3.5 | 0.00 | 0.01 | 0.00 | 93 | 1018.1 |
| 20260510170027 | 66 | 134 | 1.7 | 3.5 | 0.00 | 0.01 | 0.00 | 93 | 1018.2 |
| 20260510165528 | 67 | 118 | 0.9 | 2.6 | 0.00 | 0.01 | 0.00 | 94 | 1018.2 |
| 20260510165028 | 66 | 36 | 0.9 | 2.6 | 0.00 | 0.01 | 0.00 | 93 | 1018.3 |
| 20260510164528 | 67 | 193 | 0.0 | 2.6 | 0.00 | 0.01 | 0.00 | 94 | 1018.3 |
| 20260510164029 | 66 | 112 | 1.7 | 4.3 | 0.00 | 0.01 | 0.00 | 95 | 1018.2 |
| 20260510163553 | 66 | 167 | 2.6 | 5.2 | 0.00 | 0.01 | 0.00 | 95 | 1018.3 |
| 20260510163013 | 66 | 120 | 1.7 | 3.5 | 0.00 | 0.01 | 0.00 | 96 | 1018.3 |
| 20260510162519 | 65 | 125 | 0.9 | 2.6 | 0.00 | 0.01 | 0.00 | 96 | 1018.1 |
| 20260510162021 | 65 | 94 | 1.7 | 2.6 | 0.00 | 0.01 | 0.00 | 96 | 1018.2 |
| 20260510161522 | 65 | 122 | 1.7 | 3.5 | 0.00 | 0.01 | 0.00 | 96 | 1018.2 |
| 20260510161024 | 65 | 140 | 1.7 | 3.5 | 0.00 | 0.01 | 0.00 | 96 | 1018.2 |
| 20260510160526 | 65 | 74 | 0.0 | 2.6 | 0.00 | 0.01 | 0.00 | 97 | 1018.2 |
| 20260510160023 | 65 | 89 | 0.9 | 3.5 | 0.00 | 0.01 | 0.00 | 97 | 1018.2 |
| 20260510155522 | 65 | 89 | 0.9 | 4.3 | 0.00 | 0.01 | 0.00 | 97 | 1018.2 |
| 20260510155025 | 65 | 92 | 1.7 | 4.3 | 0.00 | 0.01 | 0.00 | 98 | 1018.2 |
| 20260510154527 | 64 | 118 | 0.9 | 2.6 | 0.00 | 0.01 | 0.00 | 98 | 1018.1 |
| 20260510154026 | 64 | 117 | 1.7 | 2.6 | 0.00 | 0.01 | 0.00 | 98 | 1018.1 |
| 20260510153516 | 64 | 42 | 0.0 | 3.5 | 0.00 | 0.01 | 0.00 | 98 | 1018.1 |
| 20260510153019 | 64 | 111 | 1.7 | 3.5 | 0.00 | 0.01 | 0.00 | 98 | 1018.2 |
| 20260510152542 | 64 | 123 | 0.9 | 2.6 | 0.00 | 0.01 | 0.00 | 98 | 1018.2 |
| 20260510152021 | 64 | 34 | 0.9 | 2.6 | 0.00 | 0.01 | 0.00 | 98 | 1018.1 |
| 20260510151525 | 64 | 49 | 0.9 | 2.6 | 0.00 | 0.01 | 0.00 | 98 | 1018.1 |
| 20260510151029 | 63 | 26 | 0.9 | 3.5 | 0.00 | 0.01 | 0.00 | 99 | 1018.1 |
| 20260510150531 | 63 | 296 | 0.9 | 3.5 | 0.00 | 0.01 | 0.00 | 98 | 1018.1 |
| 20260510150031 | 63 | 360 | 0.0 | 2.6 | 0.00 | 0.01 | 0.00 | 99 | 1018.0 |
| 20260510145528 | 63 | 360 | 0.0 | 2.6 | 0.00 | 0.01 | 0.00 | 98 | 1018.1 |
| 20260510145031 | 63 | 16 | 0.9 | 3.5 | 0.00 | 0.01 | 0.00 | 98 | 1018.0 |
| 20260510144530 | 63 | 111 | 1.7 | 4.3 | 0.00 | 0.01 | 0.00 | 99 | 1018.0 |
| 20260510144019 | 63 | 9 | 1.7 | 4.3 | 0.00 | 0.01 | 0.00 | 98 | 1017.9 |
| 20260510143520 | 63 | 312 | 0.0 | 3.5 | 0.00 | 0.01 | 0.00 | 98 | 1017.9 |
| 20260510143021 | 63 | 50 | 0.9 | 3.5 | 0.00 | 0.01 | 0.00 | 98 | 1018.0 |
| 20260510142523 | 63 | 32 | 1.7 | 3.5 | 0.00 | 0.01 | 0.00 | 98 | 1018.0 |
| 20260510142025 | 64 | 70 | 0.9 | 1.7 | 0.00 | 0.01 | 0.00 | 99 | 1017.9 |
| 20260510141550 | 64 | 70 | 0.9 | 3.5 | 0.00 | 0.01 | 0.00 | 98 | 1017.8 |
| 20260510141016 | 63 | 42 | 0.9 | 3.5 | 0.00 | 0.01 | 0.00 | 98 | 1017.8 |
| 20260510140521 | 63 | 19 | 1.7 | 2.6 | 0.00 | 0.01 | 0.00 | 98 | 1017.9 |
| 20260510140021 | 63 | 45 | 1.7 | 2.6 | 0.00 | 0.01 | 0.00 | 99 | 1017.8 |
| 20260510135548 | 63 | 57 | 0.0 | 1.7 | 0.00 | 0.01 | 0.00 | 98 | 1017.8 |
| 20260510135028 | 63 | 80 | 0.9 | 2.6 | 0.00 | 0.01 | 0.00 | 99 | 1017.7 |
| 20260510134526 | 63 | 28 | 0.9 | 2.6 | 0.00 | 0.01 | 0.00 | 98 | 1017.7 |
| 20260510134026 | 63 | 106 | 0.0 | 2.6 | 0.00 | 0.01 | 0.00 | 99 | 1017.7 |
| 20260510133528 | 63 | 107 | 1.7 | 3.5 | 0.00 | 0.01 | 0.00 | 98 | 1017.5 |
| 20260510133016 | 63 | 136 | 1.7 | 3.5 | 0.00 | 0.01 | 0.00 | 98 | 1017.5 |
| 20260510132538 | 63 | 115 | 0.9 | 2.6 | 0.00 | 0.01 | 0.00 | 98 | 1017.6 |
| 20260510132046 | 63 | 355 | 0.0 | 0.9 | 0.00 | 0.01 | 0.00 | 98 | 1017.5 |
| 20260510131553 | 63 | 355 | 0.0 | 2.6 | 0.00 | 0.01 | 0.00 | 98 | 1017.4 |
| 20260510131014 | 62 | 355 | 0.9 | 2.6 | 0.00 | 0.01 | 0.00 | 98 | 1017.4 |
| 20260510130513 | 62 | 327 | 0.9 | 2.6 | 0.00 | 0.01 | 0.00 | 98 | 1017.4 |
| 20260510130021 | 62 | 32 | 0.0 | 0.9 | 0.00 | 0.01 | 0.00 | 98 | 1017.3 |
| 20260510125525 | 62 | 32 | 0.0 | 1.7 | 0.00 | 0.01 | 0.00 | 98 | 1017.4 |
| 20260510125024 | 62 | 74 | 0.9 | 1.7 | 0.00 | 0.01 | 0.00 | 98 | 1017.4 |
| 20260510124527 | 62 | 120 | 0.0 | 1.7 | 0.00 | 0.01 | 0.00 | 98 | 1017.2 |
| 20260510124015 | 62 | 91 | 0.9 | 2.6 | 0.00 | 0.01 | 0.00 | 98 | 1017.2 |
| 20260510123521 | 62 | 126 | 0.9 | 4.3 | 0.00 | 0.01 | 0.00 | 98 | 1017.0 |
| 20260510123025 | 61 | 130 | 1.7 | 4.3 | 0.00 | 0.01 | 0.00 | 98 | 1017.0 |
| 20260510122524 | 61 | 134 | 2.6 | 4.3 | 0.00 | 0.01 | 0.00 | 98 | 1017.0 |
| 20260510122025 | 61 | 136 | 1.7 | 3.5 | 0.00 | 0.01 | 0.00 | 98 | 1016.9 |
| 20260510121530 | 61 | 151 | 1.7 | 3.5 | 0.00 | 0.01 | 0.00 | 98 | 1016.9 |
| 20260510121032 | 61 | 131 | 1.7 | 2.6 | 0.00 | 0.01 | 0.00 | 98 | 1016.9 |
| 20260510120536 | 61 | 126 | 1.7 | 2.6 | 0.00 | 0.01 | 0.00 | 98 | 1016.8 |
| 20260510120037 | 61 | 155 | 0.9 | 1.7 | 0.00 | 0.01 | 0.00 | 98 | 1016.8 |
| 20260510115540 | 61 | 134 | 1.7 | 3.5 | 0.00 | 0.01 | 0.00 | 98 | 1016.7 |
| 20260510115040 | 61 | 129 | 1.7 | 3.5 | 0.00 | 0.01 | 0.00 | 98 | 1016.7 |
| 20260510114543 | 61 | 146 | 1.7 | 4.3 | 0.00 | 0.01 | 0.00 | 98 | 1016.6 |
| 20260510114026 | 61 | 157 | 1.7 | 4.3 | 0.00 | 0.01 | 0.00 | 98 | 1016.5 |
| 20260510113527 | 61 | 127 | 1.7 | 3.5 | 0.00 | 0.01 | 0.00 | 98 | 1016.4 |
| 20260510113017 | 61 | 11 | 0.0 | 1.7 | 0.00 | 0.01 | 0.00 | 98 | 1016.4 |
| 20260510112519 | 61 | 11 | 0.9 | 2.6 | 0.00 | 0.01 | 0.00 | 98 | 1016.2 |
| 20260510112019 | 60 | 350 | 0.9 | 2.6 | 0.00 | 0.01 | 0.00 | 98 | 1016.1 |
| 20260510111522 | 60 | 5 | 1.7 | 3.5 | 0.00 | 0.01 | 0.00 | 98 | 1016.0 |
| 20260510111045 | 61 | 27 | 2.6 | 3.5 | 0.00 | 0.01 | 0.00 | 98 | 1015.7 |
| 20260510110551 | 61 | 347 | 1.7 | 3.5 | 0.00 | 0.01 | 0.00 | 98 | 1015.5 |
| 20260510110017 | 60 | 338 | 1.7 | 3.5 | 0.00 | 0.01 | 0.00 | 98 | 1015.5 |
| 20260510105539 | 60 | 355 | 2.6 | 3.5 | 0.00 | 0.01 | 0.00 | 98 | 1015.4 |
| 20260510105019 | 60 | 355 | 1.7 | 2.6 | 0.00 | 0.01 | 0.00 | 98 | 1015.2 |
| 20260510104522 | 60 | 346 | 0.9 | 2.6 | 0.00 | 0.01 | 0.00 | 98 | 1015.2 |
| 20260510104024 | 60 | 341 | 1.7 | 2.6 | 0.00 | 0.01 | 0.00 | 98 | 1015.0 |
| 20260510103529 | 60 | 332 | 0.9 | 2.6 | 0.00 | 0.01 | 0.00 | 98 | 1015.0 |
| 20260510103031 | 60 | 355 | 0.9 | 1.7 | 0.00 | 0.01 | 0.00 | 98 | 1014.9 |
| 20260510102516 | 60 | 139 | 0.0 | 0.0 | 0.00 | 0.01 | 0.00 | 98 | 1014.9 |
| 20260510102021 | 60 | 139 | 0.0 | 0.9 | 0.00 | 0.01 | 0.00 | 98 | 1014.8 |
| 20260510101527 | 60 | 139 | 0.0 | 0.9 | 0.00 | 0.01 | 0.00 | 98 | 1014.8 |
| 20260510101030 | 60 | 139 | 0.0 | 0.0 | 0.00 | 0.01 | 0.00 | 98 | 1014.7 |
| 20260510100519 | 60 | 139 | 0.0 | 1.7 | 0.00 | 0.01 | 0.00 | 98 | 1014.7 |
| 20260510100044 | 60 | 139 | 0.0 | 2.6 | 0.00 | 0.01 | 0.00 | 98 | 1014.7 |
| 20260510095540 | 60 | 139 | 1.7 | 2.6 | 0.00 | 0.01 | 0.00 | 98 | 1014.6 |
| 20260510095038 | 60 | 157 | 2.6 | 4.3 | 0.00 | 0.01 | 0.00 | 98 | 1014.6 |
| 20260510094521 | 60 | 151 | 2.6 | 4.3 | 0.00 | 0.01 | 0.00 | 98 | 1014.5 |
| 20260510094025 | 60 | 155 | 3.5 | 4.3 | 0.00 | 0.01 | 0.00 | 98 | 1014.5 |
| 20260510093530 | 60 | 153 | 3.5 | 4.3 | 0.00 | 0.01 | 0.00 | 98 | 1014.4 |
| 20260510093018 | 60 | 159 | 2.6 | 3.5 | 0.00 | 0.01 | 0.00 | 98 | 1014.2 |
| 20260510092541 | 60 | 327 | 0.0 | 0.0 | 0.00 | 0.01 | 0.00 | 98 | 1014.1 |
| 20260510092021 | 60 | 327 | 0.0 | 0.0 | 0.00 | 0.01 | 0.00 | 98 | 1014.0 |
| 20260510091546 | 60 | 327 | 0.0 | 0.0 | 0.00 | 0.01 | 0.00 | 98 | 1014.0 |
| 20260510091047 | 60 | 327 | 0.0 | 0.0 | 0.00 | 0.01 | 0.00 | 98 | 1013.9 |
| 20260510090527 | 61 | 327 | 0.0 | 0.0 | 0.00 | 0.01 | 0.00 | 98 | 1013.8 |
| 20260510090027 | 61 | 327 | 0.0 | 0.9 | 0.00 | 0.07 | 0.00 | 98 | 1013.8 |
| 20260510085526 | 61 | 327 | 0.0 | 0.9 | 0.00 | 0.07 | 0.00 | 98 | 1013.8 |
| 20260510085029 | 61 | 327 | 0.0 | 0.0 | 0.00 | 0.07 | 0.00 | 98 | 1013.7 |
| 20260510084516 | 61 | 327 | 0.0 | 0.9 | 0.00 | 0.07 | 0.00 | 98 | 1013.7 |
| 20260510084021 | 61 | 327 | 0.0 | 2.6 | 0.00 | 0.07 | 0.00 | 98 | 1013.5 |
| 20260510083522 | 61 | 327 | 0.9 | 3.5 | 0.00 | 0.07 | 0.00 | 98 | 1013.6 |
| 20260510083024 | 62 | 335 | 1.7 | 3.5 | 0.00 | 0.07 | 0.00 | 98 | 1013.5 |
| 20260510082526 | 62 | 343 | 1.7 | 2.6 | 0.00 | 0.07 | 0.00 | 98 | 1013.6 |
| 20260510082029 | 62 | 343 | 0.9 | 2.6 | 0.00 | 0.07 | 0.00 | 97 | 1013.5 |
| 20260510081517 | 62 | 343 | 0.9 | 2.6 | 0.00 | 0.07 | 0.00 | 97 | 1013.5 |
| 20260510081041 | 62 | 343 | 0.0 | 3.5 | 0.00 | 0.07 | 0.00 | 98 | 1013.5 |
| 20260510080521 | 62 | 343 | 0.9 | 3.5 | 0.00 | 0.07 | 0.00 | 97 | 1013.5 |
| 20260510080020 | 62 | 326 | 1.7 | 4.3 | 0.00 | 0.07 | 0.00 | 98 | 1013.6 |
| 20260510075518 | 62 | 329 | 1.7 | 5.2 | 0.00 | 0.07 | 0.00 | 98 | 1013.4 |
| 20260510075019 | 61 | 315 | 3.5 | 5.2 | 0.00 | 0.07 | 0.00 | 97 | 1013.4 |
| 20260510074522 | 61 | 309 | 3.5 | 5.2 | 0.00 | 0.07 | 0.00 | 97 | 1013.5 |
| 20260510074050 | 61 | 349 | 2.6 | 5.2 | 0.00 | 0.07 | 0.00 | 97 | 1013.4 |
| 20260510073530 | 61 | 343 | 3.5 | 5.2 | 0.00 | 0.07 | 0.00 | 97 | 1013.3 |
| 20260510073015 | 61 | 327 | 3.5 | 5.2 | 0.00 | 0.07 | 0.00 | 97 | 1013.4 |
| 20260510072519 | 61 | 336 | 2.6 | 5.2 | 0.00 | 0.07 | 0.00 | 97 | 1013.4 |
| 20260510072021 | 61 | 320 | 3.5 | 5.2 | 0.00 | 0.07 | 0.00 | 97 | 1013.4 |
| 20260510071544 | 61 | 317 | 2.6 | 4.3 | 0.00 | 0.07 | 0.00 | 97 | 1013.4 |
| 20260510071049 | 61 | 317 | 2.6 | 4.3 | 0.00 | 0.07 | 0.00 | 97 | 1013.4 |
| 20260510070549 | 61 | 322 | 2.6 | 4.3 | 0.00 | 0.07 | 0.00 | 97 | 1013.4 |
| 20260510070026 | 61 | 325 | 1.7 | 3.5 | 0.00 | 0.07 | 0.00 | 97 | 1013.5 |
| 20260510065550 | 62 | 307 | 2.6 | 3.5 | 0.00 | 0.07 | 0.00 | 97 | 1013.6 |
| 20260510065017 | 62 | 307 | 2.6 | 3.5 | 0.00 | 0.07 | 0.00 | 97 | 1013.7 |
| 20260510064518 | 62 | 307 | 2.6 | 3.5 | 0.00 | 0.07 | 0.00 | 97 | 1013.8 |
| 20260510064022 | 62 | 305 | 1.7 | 2.6 | 0.00 | 0.07 | 0.00 | 97 | 1013.8 |
| 20260510063523 | 62 | 323 | 1.7 | 1.7 | 0.00 | 0.07 | 0.00 | 97 | 1013.9 |
| 20260510063049 | 63 | 288 | 0.9 | 1.7 | 0.00 | 0.07 | 0.00 | 97 | 1013.9 |
| 20260510062519 | 63 | 284 | 0.0 | 2.6 | 0.00 | 0.07 | 0.00 | 97 | 1013.9 |
| 20260510062022 | 64 | 198 | 0.9 | 2.6 | 0.00 | 0.07 | 0.00 | 97 | 1013.9 |
| 20260510061549 | 64 | 202 | 0.9 | 1.7 | 0.00 | 0.07 | 0.00 | 97 | 1013.8 |
| 20260510061051 | 64 | 246 | 0.0 | 1.7 | 0.00 | 0.07 | 0.00 | 97 | 1014.0 |
| 20260510060517 | 63 | 246 | 0.0 | 1.7 | 0.00 | 0.07 | 0.00 | 96 | 1014.0 |
| 20260510055513 | 64 | 209 | 0.9 | 1.7 | 0.00 | 0.07 | 0.00 | 97 | 1013.9 |
| 20260510055016 | 64 | 209 | 0.0 | 0.9 | 0.00 | 0.07 | 0.00 | 96 | 1014.0 |
| 20260510054520 | 64 | 209 | 0.0 | 1.7 | 0.00 | 0.07 | 0.00 | 96 | 1014.1 |
| 20260510054023 | 64 | 209 | 0.0 | 1.7 | 0.00 | 0.07 | 0.00 | 96 | 1014.2 |
| 20260510053523 | 64 | 209 | 0.0 | 1.7 | 0.00 | 0.07 | 0.00 | 96 | 1014.2 |
| 20260510053042 | 64 | 209 | 0.0 | 1.7 | 0.00 | 0.07 | 0.00 | 96 | 1014.1 |
| 20260510052521 | 64 | 241 | 0.0 | 1.7 | 0.00 | 0.07 | 0.00 | 96 | 1014.2 |
| 20260510052024 | 64 | 225 | 0.0 | 2.6 | 0.00 | 0.07 | 0.00 | 96 | 1014.1 |
| 20260510051543 | 64 | 247 | 0.9 | 2.6 | 0.00 | 0.07 | 0.00 | 96 | 1014.0 |
| 20260510051047 | 64 | 221 | 0.9 | 3.5 | 0.00 | 0.07 | 0.00 | 96 | 1014.1 |
| 20260510050530 | 64 | 232 | 0.9 | 3.5 | 0.00 | 0.07 | 0.00 | 96 | 1014.0 |
| 20260510050017 | 64 | 223 | 1.7 | 2.6 | 0.00 | 0.07 | 0.07 | 96 | 1014.2 |
| 20260510045519 | 65 | 194 | 0.9 | 3.5 | 0.00 | 0.07 | 0.07 | 96 | 1014.2 |
| 20260510045021 | 65 | 207 | 1.7 | 5.2 | 0.00 | 0.07 | 0.07 | 96 | 1014.2 |
| 20260510044547 | 65 | 226 | 1.7 | 4.3 | 0.00 | 0.07 | 0.07 | 96 | 1014.2 |
| 20260510044049 | 65 | 244 | 0.9 | 1.7 | 0.00 | 0.07 | 0.07 | 96 | 1014.3 |
| 20260510043526 | 65 | 215 | 0.9 | 2.6 | 0.00 | 0.07 | 0.07 | 96 | 1014.2 |
| 20260510043028 | 65 | 225 | 0.9 | 2.6 | 0.00 | 0.07 | 0.07 | 96 | 1014.1 |
| 20260510042516 | 65 | 206 | 0.9 | 2.6 | 0.00 | 0.07 | 0.07 | 96 | 1014.2 |
| 20260510042043 | 65 | 204 | 0.9 | 2.6 | 0.00 | 0.07 | 0.07 | 96 | 1014.2 |
| 20260510041517 | 65 | 204 | 0.9 | 4.3 | 0.00 | 0.07 | 0.07 | 96 | 1014.3 |
| 20260510041017 | 65 | 203 | 1.7 | 5.2 | 0.00 | 0.07 | 0.07 | 96 | 1014.3 |
| 20260510040541 | 65 | 231 | 1.7 | 5.2 | 0.00 | 0.07 | 0.07 | 96 | 1014.3 |
| 20260510040048 | 65 | 240 | 0.9 | 3.5 | 0.00 | 0.07 | 0.07 | 96 | 1014.3 |
| 20260510035550 | 65 | 211 | 1.7 | 3.5 | 0.00 | 0.07 | 0.07 | 96 | 1014.2 |
| 20260510035016 | 65 | 191 | 1.7 | 4.3 | 0.00 | 0.07 | 0.07 | 96 | 1014.4 |
| 20260510034521 | 65 | 198 | 1.7 | 4.3 | 0.00 | 0.07 | 0.07 | 96 | 1014.5 |
| 20260510034048 | 65 | 217 | 0.9 | 3.5 | 0.00 | 0.07 | 0.07 | 96 | 1014.3 |
| 20260510033524 | 65 | 257 | 0.9 | 3.5 | 0.00 | 0.07 | 0.07 | 96 | 1014.3 |
| 20260510033051 | 65 | 215 | 1.7 | 4.3 | 0.00 | 0.07 | 0.07 | 96 | 1014.4 |
| 20260510032516 | 65 | 194 | 0.9 | 4.3 | 0.00 | 0.07 | 0.07 | 96 | 1014.6 |
| 20260510032019 | 65 | 247 | 1.7 | 4.3 | 0.00 | 0.07 | 0.07 | 96 | 1014.6 |
| 20260510031521 | 65 | 209 | 0.9 | 2.6 | 0.00 | 0.07 | 0.07 | 96 | 1014.6 |
| 20260510031048 | 65 | 194 | 0.9 | 4.3 | 0.00 | 0.07 | 0.07 | 96 | 1014.5 |
| 20260510030527 | 65 | 205 | 1.7 | 4.3 | 0.00 | 0.07 | 0.07 | 96 | 1014.3 |
| 20260510030032 | 65 | 207 | 0.9 | 3.5 | 0.00 | 0.07 | 0.07 | 96 | 1014.3 |
| 20260510025513 | 65 | 204 | 0.9 | 3.5 | 0.00 | 0.07 | 0.07 | 96 | 1014.3 |
| 20260510025021 | 65 | 221 | 1.7 | 3.5 | 0.00 | 0.07 | 0.07 | 96 | 1014.4 |
| 20260510024544 | 65 | 200 | 0.9 | 3.5 | 0.00 | 0.07 | 0.07 | 96 | 1014.4 |
| 20260510024027 | 65 | 200 | 0.9 | 3.5 | 0.00 | 0.07 | 0.07 | 96 | 1014.3 |
| 20260510023525 | 65 | 188 | 1.7 | 4.3 | 0.00 | 0.07 | 0.07 | 96 | 1014.3 |
| 20260510023051 | 65 | 199 | 1.7 | 4.3 | 0.00 | 0.07 | 0.07 | 96 | 1014.3 |
| 20260510022516 | 65 | 182 | 1.7 | 5.2 | 0.00 | 0.07 | 0.07 | 96 | 1014.1 |
| 20260510022018 | 65 | 174 | 2.6 | 4.3 | 0.00 | 0.07 | 0.07 | 96 | 1014.0 |
| 20260510021543 | 65 | 180 | 2.6 | 4.3 | 0.00 | 0.07 | 0.07 | 96 | 1014.0 |
| 20260510021050 | 65 | 147 | 1.7 | 3.5 | 0.00 | 0.07 | 0.07 | 96 | 1014.0 |
| 20260510020531 | 65 | 173 | 2.6 | 4.3 | 0.00 | 0.07 | 0.07 | 96 | 1013.8 |
| 20260510020020 | 65 | 184 | 2.6 | 4.3 | 0.00 | 0.07 | 0.07 | 96 | 1013.8 |
| 20260510015545 | 65 | 172 | 2.6 | 4.3 | 0.00 | 0.07 | 0.07 | 96 | 1013.8 |
| 20260510015014 | 65 | 175 | 1.7 | 4.3 | 0.00 | 0.07 | 0.07 | 96 | 1013.8 |
| 20260510014529 | 65 | 159 | 1.7 | 4.3 | 0.00 | 0.07 | 0.07 | 96 | 1013.5 |
| 20260510014016 | 65 | 148 | 2.6 | 4.3 | 0.00 | 0.07 | 0.07 | 96 | 1013.4 |
| 20260510013522 | 65 | 162 | 2.6 | 4.3 | 0.00 | 0.07 | 0.07 | 95 | 1013.4 |
| 20260510013025 | 65 | 150 | 2.6 | 4.3 | 0.00 | 0.07 | 0.07 | 95 | 1013.2 |
| 20260510012550 | 65 | 155 | 2.6 | 4.3 | 0.00 | 0.07 | 0.07 | 95 | 1013.1 |
| 20260510012016 | 65 | 150 | 2.6 | 3.5 | 0.00 | 0.07 | 0.07 | 95 | 1013.1 |
| 20260510011520 | 66 | 154 | 1.7 | 4.3 | 0.00 | 0.07 | 0.07 | 95 | 1013.1 |
| 20260510011024 | 66 | 147 | 2.6 | 4.3 | 0.00 | 0.07 | 0.07 | 95 | 1012.9 |
| 20260510010529 | 66 | 159 | 2.6 | 5.2 | 0.00 | 0.07 | 0.07 | 95 | 1012.9 |
| 20260510010031 | 66 | 142 | 3.5 | 5.2 | 0.00 | 0.07 | 0.07 | 95 | 1012.8 |
| 20260510005519 | 66 | 157 | 1.7 | 5.2 | 0.00 | 0.07 | 0.07 | 95 | 1012.8 |
| 20260510005043 | 66 | 155 | 2.6 | 5.2 | 0.00 | 0.07 | 0.07 | 95 | 1012.6 |
| 20260510004542 | 66 | 154 | 2.6 | 5.2 | 0.00 | 0.07 | 0.07 | 95 | 1012.7 |
| 20260510004023 | 66 | 148 | 2.6 | 5.2 | 0.00 | 0.07 | 0.07 | 94 | 1012.7 |
| 20260510003521 | 66 | 155 | 2.6 | 4.3 | 0.00 | 0.07 | 0.07 | 94 | 1012.6 |
| 20260510003025 | 66 | 171 | 2.6 | 4.3 | 0.00 | 0.07 | 0.07 | 94 | 1012.7 |
| 20260510002522 | 66 | 139 | 2.6 | 5.2 | 0.00 | 0.07 | 0.07 | 94 | 1012.7 |
| 20260510002028 | 67 | 154 | 3.5 | 5.2 | 0.00 | 0.07 | 0.07 | 94 | 1012.7 |
| 20260510001518 | 67 | 152 | 3.5 | 5.2 | 0.00 | 0.07 | 0.07 | 94 | 1012.8 |
| 20260510001023 | 67 | 152 | 2.6 | 5.2 | 0.00 | 0.07 | 0.07 | 94 | 1012.7 |
| 20260510000549 | 67 | 153 | 3.5 | 5.2 | 0.00 | 0.07 | 0.07 | 93 | 1012.5 |
| 20260510000030 | 67 | 159 | 2.6 | 5.2 | 0.00 | 0.07 | 0.07 | 93 | 1012.5 |
| 20260509235518 | 67 | 157 | 2.6 | 6.1 | 0.00 | 0.07 | 0.07 | 93 | 1012.5 |
| 20260509235021 | 67 | 130 | 3.5 | 6.1 | 0.00 | 0.07 | 0.07 | 93 | 1012.4 |
| 20260509234522 | 67 | 161 | 2.6 | 4.3 | 0.00 | 0.07 | 0.07 | 93 | 1012.4 |
| 20260509234024 | 67 | 132 | 1.7 | 4.3 | 0.00 | 0.07 | 0.07 | 93 | 1012.3 |
| 20260509233550 | 67 | 150 | 1.7 | 4.3 | 0.00 | 0.07 | 0.07 | 93 | 1012.1 |
| 20260509233019 | 68 | 133 | 2.6 | 4.3 | 0.00 | 0.07 | 0.07 | 93 | 1012.0 |
| 20260509232524 | 68 | 134 | 2.6 | 4.3 | 0.00 | 0.07 | 0.07 | 92 | 1012.0 |
| 20260509232029 | 68 | 136 | 1.7 | 3.5 | 0.00 | 0.07 | 0.07 | 92 | 1012.0 |
| 20260509231517 | 68 | 132 | 2.6 | 3.5 | 0.00 | 0.07 | 0.07 | 91 | 1012.1 |
| 20260509231021 | 68 | 163 | 1.7 | 3.5 | 0.01 | 0.07 | 0.07 | 91 | 1012.1 |
| 20260509230525 | 68 | 130 | 2.6 | 3.5 | 0.01 | 0.07 | 0.07 | 90 | 1012.0 |
| 20260509230027 | 69 | 146 | 1.7 | 3.5 | 0.01 | 0.07 | 0.07 | 89 | 1012.1 |
| 20260509225517 | 69 | 160 | 2.6 | 3.5 | 0.01 | 0.07 | 0.07 | 89 | 1012.0 |
| 20260509225049 | 69 | 140 | 1.7 | 3.5 | 0.01 | 0.07 | 0.07 | 88 | 1011.9 |
| 20260509224532 | 69 | 139 | 1.7 | 3.5 | 0.01 | 0.07 | 0.07 | 87 | 1011.9 |
| 20260509224018 | 70 | 166 | 1.7 | 3.5 | 0.01 | 0.07 | 0.07 | 85 | 1011.9 |
| 20260509223538 | 70 | 170 | 1.7 | 2.6 | 0.01 | 0.07 | 0.07 | 85 | 1011.9 |
| 20260509223034 | 70 | 164 | 0.9 | 1.7 | 0.01 | 0.07 | 0.07 | 85 | 1011.8 |
| 20260509222537 | 70 | 158 | 0.9 | 1.7 | 0.01 | 0.07 | 0.07 | 84 | 1011.7 |
| 20260509222019 | 70 | 158 | 0.9 | 1.7 | 0.01 | 0.07 | 0.07 | 84 | 1011.7 |
| 20260509221522 | 70 | 134 | 0.0 | 1.7 | 0.01 | 0.07 | 0.07 | 83 | 1011.6 |
| 20260509221029 | 70 | 140 | 1.7 | 1.7 | 0.00 | 0.06 | 0.06 | 82 | 1011.6 |
| 20260509220528 | 70 | 123 | 0.9 | 1.7 | 0.00 | 0.06 | 0.06 | 83 | 1011.7 |
| 20260509220031 | 71 | 96 | 0.9 | 1.7 | 0.00 | 0.06 | 0.06 | 83 | 1011.7 |
| 20260509215519 | 71 | 96 | 0.0 | 1.7 | 0.00 | 0.06 | 0.06 | 83 | 1011.4 |
| 20260509215046 | 71 | 96 | 0.9 | 1.7 | 0.00 | 0.06 | 0.06 | 82 | 1011.4 |
| 20260509214543 | 71 | 96 | 0.9 | 1.7 | 0.00 | 0.06 | 0.06 | 80 | 1011.4 |
| 20260509214025 | 71 | 169 | 0.9 | 1.7 | 0.00 | 0.06 | 0.06 | 81 | 1011.5 |
| 20260509213531 | 71 | 218 | 0.0 | 1.7 | 0.00 | 0.06 | 0.06 | 79 | 1011.4 |
| 20260509213017 | 71 | 225 | 0.0 | 1.7 | 0.00 | 0.06 | 0.06 | 80 | 1011.6 |
| 20260509212519 | 71 | 225 | 0.0 | 1.7 | 0.00 | 0.06 | 0.06 | 81 | 1011.6 |
| 20260509212020 | 71 | 176 | 0.0 | 2.6 | 0.00 | 0.06 | 0.06 | 82 | 1011.6 |
| 20260509211546 | 71 | 205 | 0.0 | 2.6 | 0.00 | 0.06 | 0.06 | 81 | 1011.4 |
| 20260509211044 | 71 | 168 | 0.0 | 3.5 | 0.00 | 0.06 | 0.06 | 82 | 1011.4 |
| 20260509210524 | 71 | 120 | 1.7 | 3.5 | 0.00 | 0.06 | 0.06 | 82 | 1011.3 |
| 20260509210027 | 71 | 190 | 0.9 | 2.6 | 0.00 | 0.06 | 0.06 | 79 | 1011.4 |
| 20260509205517 | 71 | 193 | 0.9 | 2.6 | 0.00 | 0.06 | 0.06 | 80 | 1011.3 |
| 20260509205042 | 71 | 225 | 0.9 | 2.6 | 0.00 | 0.06 | 0.06 | 79 | 1011.3 |
| 20260509204519 | 71 | 168 | 0.9 | 3.5 | 0.00 | 0.06 | 0.06 | 81 | 1011.3 |
| 20260509204041 | 71 | 171 | 0.9 | 3.5 | 0.00 | 0.06 | 0.06 | 80 | 1011.4 |
| 20260509203523 | 71 | 168 | 1.7 | 4.3 | 0.00 | 0.06 | 0.06 | 77 | 1011.3 |
| 20260509203026 | 71 | 196 | 0.9 | 2.6 | 0.00 | 0.06 | 0.06 | 76 | 1011.7 |
| 20260509202531 | 72 | 217 | 0.0 | 5.2 | 0.00 | 0.06 | 0.06 | 79 | 1011.6 |